User: anonymous   Login
Location: Lewisville
(33.0462°N, 96.9942°W)
Time: 21:26:51
(UTC-05:00)
Language:

Hubble Space Telescope - Orbit

View from above orbital plane
View from above orbital plane
View from above satellite
View from above satellite

Ground track
Ground track

The orbit data is extracted from the following two-line orbital elements,

1 20580U 90037B   21215.13255241  .00000553  00000-0  22459-4 0  9997
2 20580  28.4698 116.2052 0002665 201.9783 303.5380 15.09695855518076
Epoch (UTC): 03 August 2021 03:10:52
Eccentricity: 0.0002665
inclination: 28.4698°
perigee height: 535 km
apogee height: 539 km
right ascension of ascending node: 116.2052°
argument of perigee: 201.9783°
revolutions per day: 15.09695855
mean anomaly at epoch: 303.5380°
orbit number at epoch: 51807

The dashed part of the orbit path shows where the satellite is in the earth's shadow,  

DLR